Date String (YYYY-MM-DD hh:mm:ss) UTC,Instrument flags,Ambient pressure (hPa),Sample flow (lpm),Bypass flow (lpm),Sample temperature (°C),Ambient temperature (°C),ASC tube jacket temperature (°C),LED temperature (°C),Box temperature (°C),Sample RH (%),Span deviation,Mass concentration (μg/m³),Mass concentration (μg/m³),Mass concentration (μg/m³)
DateTimeUTC,F1_M11,P_M11,Q1_M11,Q2_M11,T1_M11,T2_M11,T3_M11,T4_M11,T5_M11,U1_M11,ZSPAN_M11,X2_M11,X0_M11,X1_M11
2022-02-04 17:00:00,,0835.1,4.99,0.00,22.4,22.0,00.0,31.2,24.0,06.2,0000.0,0003.07,0004.48,0002.62
2022-02-04 17:01:00,,0835.0,5.01,0.00,22.3,21.9,00.0,31.2,24.0,06.2,0000.0,0003.08,0004.60,0002.61
2022-02-04 17:02:00,,0835.1,4.99,0.00,22.3,21.8,00.0,31.2,24.0,06.4,0000.0,0003.06,0004.70,0002.57
2022-02-04 17:03:00,,0835.1,5.01,0.00,22.3,21.8,00.0,31.2,24.0,06.4,0000.0,0002.97,0004.59,0002.48
2022-02-04 17:04:00,,0835.1,4.99,0.00,22.3,21.7,00.0,31.2,23.9,06.4,0000.0,0002.86,0004.23,0002.39
2022-02-04 17:05:00,,0835.1,5.01,0.00,22.2,21.7,00.0,31.2,23.9,06.5,0000.0,0002.90,0005.52,0002.41
2022-02-04 17:06:00,,0835.1,5.01,0.00,22.2,21.6,00.0,31.2,23.9,06.5,0000.0,0002.97,0005.98,0002.45
2022-02-04 17:07:00,,0835.0,5.00,0.00,22.2,21.6,00.0,31.2,23.9,06.4,0000.0,0003.00,0006.07,0002.48
2022-02-04 17:08:00,,0835.0,4.99,0.00,22.2,21.6,00.0,31.2,23.9,06.3,0000.0,0003.01,0006.14,0002.48
2022-02-04 17:09:00,,0835.1,5.00,0.00,22.2,21.5,00.0,31.2,23.8,06.0,0000.0,0003.01,0006.16,0002.46
2022-02-04 17:10:00,,0835.1,4.99,0.00,22.2,21.5,00.0,31.2,23.8,06.1,0000.0,0002.99,0006.19,0002.44
2022-02-04 17:11:00,,0835.1,5.02,0.00,22.1,21.5,00.0,31.1,23.7,06.3,0000.0,0002.94,0006.09,0002.40
2022-02-04 17:12:00,,0835.1,4.99,0.00,22.1,21.5,00.0,31.1,23.7,06.2,0000.0,0002.92,0006.01,0002.36
2022-02-04 17:13:00,,0835.1,5.00,0.00,22.1,21.4,00.0,31.1,23.7,06.2,0000.0,0002.85,0005.85,0002.30
2022-02-04 17:14:00,,0835.0,5.01,0.00,22.1,21.4,00.0,31.1,23.7,06.4,0000.0,0002.83,0005.85,0002.28
2022-02-04 17:15:00,,0835.0,5.01,0.00,22.0,21.4,00.0,31.1,23.7,06.1,0000.0,0002.79,0005.87,0002.23
2022-02-04 17:16:00,,0835.0,4.99,0.00,22.0,21.3,00.0,31.1,23.6,05.8,0000.0,0002.67,0004.22,0002.17
2022-02-04 17:17:00,,0835.0,5.00,0.00,22.0,21.3,00.0,31.1,23.5,05.7,0000.0,0002.61,0003.99,0002.09
2022-02-04 17:18:00,,0835.0,4.99,0.00,21.9,21.2,00.0,31.0,23.5,05.7,0000.0,0002.56,0003.99,0002.01
2022-02-04 17:19:00,,0835.0,5.01,0.00,21.9,21.1,00.0,31.0,23.4,05.6,0000.0,0002.45,0003.81,0001.93
2022-02-04 17:20:00,,0835.0,4.99,0.00,21.8,21.1,00.0,31.0,23.4,05.8,0000.0,0002.43,0003.80,0001.89
2022-02-04 17:21:00,,0835.0,5.00,0.00,21.8,21.1,00.0,31.0,23.4,05.9,0000.0,0002.43,0003.84,0001.85
2022-02-04 17:22:00,,0834.9,5.01,0.00,21.9,22.1,00.0,31.0,23.6,06.1,0000.0,0002.39,0003.88,0001.81
2022-02-04 17:23:00,,0835.0,5.00,0.00,22.1,23.2,00.0,31.0,24.0,06.2,0000.0,0002.29,0003.96,0001.76
2022-02-04 17:24:00,,0835.0,4.99,0.00,22.2,23.2,00.0,31.1,24.1,06.0,0000.0,0002.24,0003.86,0001.74
2022-02-04 17:25:00,,0835.0,5.01,0.00,22.2,22.9,00.0,31.1,24.1,06.0,0000.0,0002.17,0003.75,0001.68
2022-02-04 17:26:00,,0835.0,4.99,0.00,22.2,22.6,00.0,31.1,24.0,06.1,0000.0,0002.12,0003.61,0001.63
2022-02-04 17:27:00,,0835.0,5.00,0.00,22.2,22.3,00.0,31.1,23.9,05.7,0000.0,0002.10,0003.62,0001.60
2022-02-04 17:28:00,,0835.0,5.00,0.00,22.1,22.1,00.0,31.1,23.8,05.6,0000.0,0002.07,0003.64,0001.55
2022-02-04 17:29:00,,0835.0,4.99,0.00,22.1,21.9,00.0,31.1,23.7,05.6,0000.0,0002.02,0003.78,0001.52
2022-02-04 17:30:00,,0835.0,5.00,0.00,22.0,21.7,00.0,31.1,23.7,06.0,0000.0,0002.02,0004.45,0001.52
2022-02-04 17:31:00,,0835.0,5.00,0.00,22.0,21.6,00.0,31.1,23.6,06.4,0000.0,0002.02,0005.71,0001.52
2022-02-04 17:32:00,,0834.9,4.99,0.00,22.0,21.4,00.0,31.0,23.6,06.7,0000.0,0001.98,0005.66,0001.52
2022-02-04 17:33:00,,0834.9,5.02,0.00,21.9,21.4,00.0,31.0,23.5,06.7,0000.0,0002.03,0005.69,0001.56
2022-02-04 17:34:00,,0834.9,4.99,0.00,21.9,21.2,00.0,31.0,23.5,06.9,0000.0,0002.08,0007.10,0001.58
2022-02-04 17:35:00,,0834.9,5.00,0.00,21.9,21.2,00.0,31.0,23.4,06.7,0000.0,0002.13,0007.52,0001.61
2022-02-04 17:36:00,,0834.8,5.00,0.00,21.8,21.1,00.0,31.0,23.4,06.7,0000.0,0002.20,0007.90,0001.66
2022-02-04 17:37:00,,0834.9,5.02,0.00,21.8,21.0,00.0,30.9,23.3,06.7,0000.0,0002.22,0008.53,0001.71
2022-02-04 17:38:00,,0834.8,5.00,0.00,21.7,21.0,00.0,30.9,23.3,06.8,0000.0,0002.28,0008.54,0001.77
2022-02-04 17:39:00,,0834.9,5.00,0.00,21.7,21.0,00.0,30.9,23.3,06.8,0000.0,0002.31,0008.66,0001.84
2022-02-04 17:40:00,,0834.8,5.00,0.00,21.7,20.9,00.0,30.9,23.2,06.4,0000.0,0002.34,0009.05,0001.88
2022-02-04 17:41:00,,0834.9,5.01,0.00,21.6,20.9,00.0,30.8,23.2,06.3,0000.0,0002.36,0008.75,0001.88
2022-02-04 17:42:00,,0834.8,4.99,0.00,21.6,20.8,00.0,30.8,23.1,06.2,0000.0,0002.37,0008.13,0001.89
2022-02-04 17:43:00,,0834.8,5.00,0.00,21.5,20.7,00.0,30.8,23.1,06.0,0000.0,0002.35,0008.49,0001.88
2022-02-04 17:44:00,,0834.8,5.01,0.00,21.5,20.7,00.0,30.7,23.0,06.3,0000.0,0002.29,0008.45,0001.83
2022-02-04 17:45:00,,0834.8,4.99,0.00,21.6,21.8,00.0,30.7,23.3,06.4,0000.0,0002.29,0007.58,0001.82
2022-02-04 17:46:00,,0834.8,5.01,0.00,21.8,22.9,00.0,30.8,23.7,06.6,0000.0,0002.30,0007.42,0001.82
2022-02-04 17:47:00,,0834.7,5.00,0.00,21.9,22.8,00.0,30.8,23.8,06.6,0000.0,0002.25,0007.21,0001.80
2022-02-04 17:48:00,,0834.7,5.02,0.00,21.9,22.5,00.0,30.8,23.7,06.3,0000.0,0002.23,0005.87,0001.77
2022-02-04 17:49:00,,0834.7,4.98,0.00,21.9,22.1,00.0,30.8,23.6,06.3,0000.0,0002.21,0005.86,0001.74
2022-02-04 17:50:00,,0834.7,5.01,0.00,21.8,21.8,00.0,30.8,23.4,06.3,0000.0,0002.16,0005.57,0001.71
2022-02-04 17:51:00,,0834.7,5.01,0.00,21.8,21.5,00.0,30.8,23.3,06.3,0000.0,0002.13,0005.13,0001.71
2022-02-04 17:52:00,,0834.6,5.00,0.00,21.7,21.3,00.0,30.8,23.2,06.5,0000.0,0002.16,0005.04,0001.74
2022-02-04 17:53:00,,0834.7,4.99,0.00,21.6,21.1,00.0,30.8,23.2,06.8,0000.0,0002.19,0005.08,0001.78
2022-02-04 17:54:00,,0834.6,4.99,0.00,21.6,21.0,00.0,30.7,23.1,06.9,0000.0,0002.25,0004.40,0001.83
2022-02-04 17:55:00,,0834.6,5.01,0.00,21.5,20.9,00.0,30.7,23.1,06.7,0000.0,0002.32,0004.46,0001.90
2022-02-04 17:56:00,,0834.6,5.01,0.00,21.5,20.8,00.0,30.7,23.0,06.6,0000.0,0002.35,0004.45,0001.93
2022-02-04 17:57:00,,0834.5,5.00,0.00,21.5,20.8,00.0,30.7,23.0,06.8,0000.0,0002.36,0004.36,0001.94
2022-02-04 17:58:00,,0834.6,4.99,0.00,21.5,20.8,00.0,30.6,23.0,06.7,0000.0,0002.41,0004.42,0001.96
2022-02-04 17:59:00,,0834.6,5.00,0.00,21.4,20.8,00.0,30.6,23.0,06.4,0000.0,0002.43,0005.56,0001.98
